Wind_Speed
48 50 51 53 55 57 58 60 62 64 65 67 68 69 70 72 74 75 76 76 76 76 76 76 76 75 75 76 76 77 77 77 78 74 72 70 70 69 69 69 69 70 69
51 52 54 56 58 60 61 63 64 66 67 68 70 71 73 74 76 76 76 76 76 76 76 75 74 74 75 75 75 74 73 72 72 70 65 63 63 63 63 63 63 64 64
53 55 57 59 61 62 64 65 66 67 69 70 72 73 75 76 76 76 76 76 76 75 74 73 73 73 73 72 72 71 69 67 66 65 61 58 57 57 58 58 58 58 58
55 58 60 62 63 65 66 67 68 69 71 72 74 75 76 76 76 76 76 76 75 74 73 72 72 72 71 69 67 65 63 62 60 59 57 55 54 53 54 53 53 54 53
58 60 62 64 65 66 67 69 70 71 73 74 76 76 76 75 75 75 76 75 74 73 72 71 70 68 66 64 61 59 57 56 55 55 54 52 50 50 50 50 50 49 49
61 63 64 66 67 68 69 70 72 73 75 76 76 76 75 75 76 76 76 75 74 72 70 68 65 62 59 56 55 53 52 52 51 51 50 48 46 46 46 46 46 46 44
63 65 66 67 69 70 71 72 74 75 76 77 76 76 75 76 76 76 75 74 72 69 66 63 59 56 53 52 50 49 48 47 47 47 46 44 43 42 42 42 42 41 40
65 66 68 69 70 71 73 74 76 77 77 77 76 76 76 76 76 74 72 70 67 63 60 57 54 50 49 48 46 44 43 43 43 43 43 42 41 41 41 40 40 40 39
67 68 69 71 72 73 75 76 77 78 78 77 77 76 76 74 73 71 68 64 60 56 53 51 49 46 45 44 43 41 40 40 40 41 41 39 39 38 39 39 39 40 38
68 69 70 72 74 75 76 77 78 78 78 77 76 75 75 72 69 65 62 58 54 51 48 46 44 43 41 40 40 39 39 38 39 38 37 37 37 36 37 37 38 39 38
69 71 72 74 75 77 78 78 78 79 78 77 76 74 71 68 63 59 55 53 50 47 44 42 40 39 38 37 37 38 37 37 37 36 35 35 35 35 35 36 37 37 37
71 72 73 75 77 78 78 78 79 79 78 76 74 70 66 61 56 53 50 49 47 45 42 39 37 37 36 36 36 36 36 35 34 34 33 33 33 33 33 34 34 35 35
72 74 75 76 77 78 78 79 78 78 76 74 70 65 60 54 51 49 47 46 44 43 40 38 37 37 36 36 35 35 34 34 34 33 32 32 32 32 32 33 33 33 33
74 75 76 77 78 78 78 78 77 75 73 69 65 59 54 49 47 45 44 43 42 40 39 37 36 35 35 35 34 34 34 33 33 32 32 31 31 31 31 32 32 32 32
75 77 77 78 78 78 77 76 74 71 68 65 60 55 50 46 44 44 42 40 39 38 36 35 34 34 33 33 33 32 32 32 32 32 31 31 31 31 30 31 31 31 31
77 78 78 78 78 77 76 73 69 65 62 58 55 52 49 46 44 42 41 39 38 37 36 34 33 33 33 33 32 32 32 32 32 32 32 31 31 30 30 30 30 30 29
78 78 78 78 77 75 73 70 65 59 55 53 51 49 47 45 43 42 39 37 36 35 35 34 33 32 32 31 30 30 30 31 31 31 31 31 31 30 30 30 30 30 29
78 78 78 77 75 72 69 65 61 56 51 48 47 46 45 44 42 40 38 35 34 34 34 33 32 32 32 31 31 31 31 30 31 31 31 31 30 30 29 29 29 29 29
77 77 76 74 71 68 64 60 57 54 51 47 44 43 42 41 39 37 36 34 33 33 33 32 32 32 31 31 31 31 31 31 31 30 30 30 30 29 29 29 29 29 29
76 75 73 70 66 63 60 57 55 52 49 46 43 41 39 37 35 34 33 33 32 32 32 31 31 31 31 31 31 30 30 30 30 29 29 29 28 28 28 28 28 28 28
74 72 69 65 62 59 57 55 52 49 46 43 40 39 37 35 33 32 31 31 31 31 31 31 31 31 31 30 29 29 28 29 29 29 28 27 27 27 27 27 27 27 27
71 68 64 61 59 57 55 52 49 46 43 40 37 35 35 34 33 31 31 31 31 31 31 31 31 30 30 29 29 28 28 28 28 27 26 26 26 26 26 25 25 26 26
67 64 61 58 56 54 51 49 46 43 39 37 35 34 33 33 32 31 31 31 31 31 31 31 30 29 29 28 28 28 27 27 26 26 25 25 25 25 25 25 25 25 25
63 60 58 55 53 51 48 45 42 39 36 35 34 33 33 32 31 31 31 31 30 30 30 30 29 29 28 28 27 26 26 26 26 26 26 26 25 25 25 25 25 25 25
60 57 54 52 49 46 43 40 38 35 34 33 33 33 32 31 30 30 30 29 29 29 28 28 28 28 28 27 27 26 25 26 26 26 26 26 26 26 26 26 26 26 26
57 54 51 48 45 43 40 37 35 33 33 32 32 31 31 30 29 28 28 28 28 28 28 28 28 28 27 27 26 26 26 27 27 27 27 27 26 26 26 26 26 26 26
Wind_Direction
300 300 301 301 301 302 302 302 303 302 302 302 302 302 302 302 302 301 301 300 299 298 297 296 295 294 293 292 291 290 289 288 287 286 283 281 279 278 276 275 273 272 270
301 301 302 302 303 303 304 304 304 303 303 304 304 304 304 304 303 302 301 300 300 299 298 297 296 295 294 293 292 291 290 288 287 286 284 281 279 278 276 275 274 272 271
302 303 303 304 304 304 305 305 305 305 305 305 305 305 305 305 304 303 302 302 301 300 299 297 296 296 295 294 292 291 289 288 287 286 285 282 280 279 277 275 274 273 271
303 304 304 305 305 306 305 306 306 306 306 306 306 306 306 305 305 304 303 303 301 301 299 298 297 296 295 293 292 290 288 287 286 286 285 283 282 280 278 276 274 273 271
304 305 305 306 306 306 306 306 307 307 307 307 307 307 307 306 305 304 304 303 302 301 300 298 297 296 294 292 291 290 288 287 286 286 285 283 282 280 278 276 275 273 271
305 306 306 306 307 307 307 307 308 308 308 308 308 308 307 307 306 306 305 304 303 302 300 299 297 295 293 291 290 290 289 288 288 287 286 285 284 282 279 277 276 274 272
306 306 307 307 307 308 308 309 309 309 309 309 309 308 308 307 307 306 305 304 303 302 300 299 297 295 292 291 290 289 288 289 289 288 287 287 285 283 281 279 277 275 273
307 307 308 308 309 309 310 310 310 310 310 310 310 309 308 308 307 307 305 304 303 302 300 299 297 294 292 291 290 289 288 288 288 287 287 286 285 284 283 280 278 276 274
308 309 309 309 310 310 311 311 311 311 311 311 311 310 309 309 308 307 305 304 304 303 301 299 297 295 293 292 291 290 289 288 288 287 287 285 284 284 283 281 279 277 276
309 310 310 310 311 311 312 312 312 312 312 312 311 310 310 309 309 307 305 304 304 304 302 300 298 296 294 292 292 291 291 290 288 287 286 285 284 283 282 281 280 279 278
310 311 311 312 312 312 312 313 313 313 313 312 312 311 310 309 308 306 305 305 304 304 302 300 298 296 295 293 293 293 293 292 290 287 286 284 283 282 282 281 281 280 279
311 312 312 313 313 313 313 314 314 314 313 313 312 311 310 309 307 305 305 305 304 304 303 301 299 297 295 294 293 294 293 293 292 290 288 286 284 283 281 281 280 280 279
312 312 313 313 313 314 314 314 314 314 313 313 313 312 310 308 306 305 304 304 304 303 302 300 299 297 296 295 294 293 292 292 292 291 290 288 286 284 282 281 280 279 279
313 313 313 314 314 314 315 315 315 314 313 313 313 312 310 308 306 305 304 304 303 302 301 299 298 298 297 296 295 293 293 292 291 291 290 288 287 285 284 282 280 279 279
313 313 314 314 314 315 315 316 315 315 314 314 313 312 310 309 308 307 306 304 303 302 300 298 297 297 297 296 295 294 293 292 291 290 289 288 286 285 284 283 282 281 279
314 314 314 315 315 315 316 316 315 314 314 313 313 312 311 310 309 308 306 305 304 302 302 301 299 298 298 296 295 294 293 292 290 289 288 287 286 284 283 283 282 282 281
314 314 315 315 316 316 316 316 315 314 313 313 312 311 310 309 309 308 306 305 303 302 302 302 300 299 298 297 295 295 295 294 292 290 289 287 286 285 283 283 282 281 281
314 315 315 316 316 316 316 316 315 315 313 312 311 309 308 308 308 307 305 304 303 302 302 302 300 299 298 297 295 295 295 294 293 291 289 288 287 285 283 282 282 281 280
314 314 315 315 315 315 315 315 315 314 314 313 311 309 308 308 308 306 305 304 303 303 302 301 301 299 298 297 296 295 295 294 293 292 290 289 287 285 284 283 282 281 280
314 314 314 315 315 315 315 315 314 314 313 313 312 310 308 307 307 306 305 304 304 304 303 303 302 301 299 298 297 296 296 295 294 293 292 290 288 286 285 284 283 282 281
314 314 314 314 314 314 315 314 314 314 313 312 312 311 310 309 308 306 305 304 304 304 304 304 304 303 301 299 298 297 297 297 296 294 293 292 290 288 287 286 284 282 281
314 314 314 314 314 314 314 314 314 314 313 312 312 311 311 310 309 308 307 306 305 304 304 305 305 304 302 300 299 298 298 298 298 297 294 293 291 290 289 287 285 283 282
314 314 313 313 314 314 314 313 313 313 313 313 313 312 312 311 309 308 307 306 305 304 304 305 305 305 304 303 301 299 299 299 299 298 296 295 293 292 290 289 287 285 284
314 313 313 313 314 314 314 313 313 312 312 313 313 313 313 312 310 308 308 307 306 306 305 305 305 304 304 303 302 300 299 298 298 298 297 296 294 292 290 289 287 286 285
314 313 313 313 313 314 314 314 313 312 312 313 313 314 314 313 312 311 310 309 308 308 308 307 306 305 304 303 302 299 298 298 297 297 297 296 294 292 290 289 287 285 284
314 313 312 312 313 314 314 314 313 312 312 313 313 314 315 314 313 312 312 310 310 310 310 309 308 307 305 304 301 299 298 298 297 296 296 296 295 293 291 289 288 286 286
Height
5716 5711 5706 5700 5694 5688 5682 5676 5669 5662 5654 5647 5639 5631 5623 5615 5606 5598 5589 5581 5573 5565 5557 5549 5542 5534 5528 5521 5513 5506 5499 5491 5486 5493 5490 5484 5478 5475 5473 5470 5470 5469 5470
5704 5699 5693 5687 5681 5674 5667 5660 5653 5645 5637 5629 5621 5613 5604 5595 5586 5577 5568 5560 5551 5543 5535 5526 5519 5511 5505 5497 5490 5483 5477 5470 5462 5463 5466 5462 5458 5454 5452 5450 5449 5448 5448
5692 5686 5680 5673 5667 5659 5652 5644 5636 5628 5620 5611 5602 5593 5584 5575 5565 5555 5546 5538 5529 5521 5513 5505 5497 5489 5482 5475 5467 5461 5455 5449 5443 5439 5442 5441 5438 5435 5432 5430 5429 5428 5428
5680 5673 5666 5659 5652 5644 5636 5628 5620 5611 5602 5593 5584 5574 5564 5554 5544 5534 5525 5516 5508 5500 5491 5483 5475 5467 5459 5452 5446 5440 5435 5430 5425 5421 5421 5421 5420 5417 5413 5412 5411 5411 5411
5667 5660 5652 5644 5637 5628 5620 5612 5603 5594 5584 5574 5564 5554 5544 5533 5523 5513 5504 5495 5487 5479 5470 5462 5453 5445 5438 5431 5425 5421 5416 5412 5409 5405 5403 5402 5402 5400 5397 5395 5394 5394 5395
5653 5645 5637 5629 5621 5613 5604 5595 5585 5576 5566 5555 5544 5534 5524 5513 5502 5492 5482 5473 5465 5457 5449 5441 5433 5426 5419 5413 5408 5404 5400 5396 5392 5389 5387 5386 5385 5383 5381 5379 5378 5378 5380
5638 5630 5622 5613 5605 5596 5586 5577 5567 5557 5546 5536 5525 5514 5504 5493 5481 5471 5461 5451 5444 5436 5427 5420 5414 5408 5402 5397 5393 5389 5386 5382 5378 5375 5372 5372 5370 5369 5366 5365 5364 5364 5365
5623 5614 5606 5597 5588 5578 5569 5559 5548 5537 5527 5516 5505 5494 5483 5473 5461 5450 5440 5431 5424 5416 5409 5402 5396 5391 5386 5381 5378 5376 5373 5370 5366 5362 5359 5358 5356 5355 5353 5352 5351 5351 5352
5607 5599 5589 5580 5570 5561 5550 5540 5529 5518 5507 5496 5485 5474 5463 5453 5441 5430 5420 5412 5406 5399 5392 5386 5380 5376 5372 5367 5364 5362 5360 5357 5353 5350 5348 5346 5344 5342 5340 5339 5338 5338 5339
5592 5582 5573 5562 5552 5542 5531 5520 5509 5498 5487 5476 5466 5454 5443 5433 5422 5411 5402 5395 5390 5385 5379 5372 5367 5362 5359 5355 5351 5349 5347 5344 5341 5338 5336 5334 5332 5330 5329 5327 5326 5325 5325
5575 5566 5556 5545 5534 5523 5513 5501 5490 5479 5468 5457 5447 5436 5424 5414 5404 5395 5386 5379 5374 5370 5365 5360 5355 5350 5347 5343 5340 5337 5334 5331 5328 5326 5324 5323 5321 5319 5318 5316 5315 5313 5313
5559 5549 5539 5528 5516 5505 5493 5482 5470 5458 5448 5437 5426 5417 5407 5397 5388 5380 5373 5366 5360 5356 5352 5348 5344 5340 5336 5333 5329 5326 5322 5319 5317 5314 5313 5311 5310 5308 5307 5305 5304 5302 5302
5542 5532 5521 5510 5498 5486 5474 5463 5452 5439 5428 5417 5407 5399 5391 5382 5374 5366 5360 5354 5348 5343 5340 5336 5332 5328 5325 5322 5318 5315 5311 5309 5306 5304 5302 5300 5299 5297 5296 5295 5293 5292 5291
5525 5514 5503 5492 5481 5469 5457 5444 5432 5420 5409 5399 5389 5381 5375 5368 5361 5354 5348 5343 5337 5332 5328 5325 5321 5317 5314 5311 5308 5304 5301 5298 5295 5293 5291 5290 5288 5287 5285 5284 5283 5282 5281
5507 5496 5485 5474 5462 5451 5440 5427 5414 5403 5390 5381 5373 5366 5359 5355 5349 5342 5335 5331 5326 5322 5318 5315 5311 5307 5304 5300 5297 5294 5291 5288 5285 5283 5281 5279 5278 5276 5275 5273 5272 5271 5271
5489 5478 5467 5455 5444 5432 5421 5412 5400 5387 5377 5367 5358 5351 5345 5340 5335 5330 5324 5319 5315 5310 5307 5304 5300 5297 5293 5290 5287 5284 5281 5278 5275 5273 5271 5269 5267 5266 5265 5263 5262 5261 5261
5471 5460 5448 5437 5425 5414 5403 5393 5385 5377 5366 5356 5347 5340 5333 5328 5323 5318 5313 5309 5304 5300 5297 5293 5290 5286 5283 5280 5277 5274 5271 5268 5265 5262 5260 5258 5257 5255 5254 5253 5252 5251 5250
5453 5441 5430 5419 5408 5397 5386 5376 5367 5360 5354 5347 5338 5329 5323 5317 5312 5307 5302 5298 5295 5291 5287 5283 5280 5276 5273 5270 5267 5264 5261 5258 5255 5252 5250 5248 5246 5245 5243 5242 5242 5241 5240
5436 5424 5413 5402 5391 5381 5371 5362 5353 5346 5339 5333 5327 5320 5313 5307 5302 5296 5292 5288 5285 5281 5277 5274 5270 5267 5263 5260 5257 5254 5251 5248 5245 5242 5240 5237 5235 5234 5233 5232 5231 5230 5230
5419 5408 5396 5385 5376 5366 5357 5348 5340 5333 5326 5320 5314 5308 5302 5297 5292 5288 5283 5278 5275 5271 5268 5264 5261 5257 5253 5250 5247 5244 5241 5238 5235 5232 5230 5227 5225 5224 5223 5221 5221 5220 5219
5402 5392 5380 5370 5361 5352 5343 5335 5328 5320 5314 5308 5302 5296 5291 5286 5282 5278 5274 5270 5266 5262 5258 5255 5251 5247 5244 5240 5237 5234 5231 5228 5225 5222 5220 5218 5216 5214 5213 5211 5210 5209 5209
5384 5374 5365 5356 5347 5339 5330 5323 5316 5309 5302 5297 5292 5287 5281 5277 5272 5269 5265 5261 5257 5253 5249 5245 5242 5238 5234 5231 5227 5224 5222 5219 5216 5213 5211 5209 5207 5205 5203 5202 5201 5200 5199
5368 5359 5350 5342 5334 5326 5318 5311 5304 5298 5292 5287 5282 5277 5273 5268 5264 5260 5256 5252 5248 5244 5240 5236 5233 5229 5225 5221 5218 5215 5212 5210 5207 5204 5202 5200 5198 5196 5195 5193 5192 5191 5190
5353 5344 5336 5329 5321 5314 5307 5300 5294 5288 5283 5278 5273 5269 5264 5259 5255 5251 5247 5243 5239 5235 5231 5227 5223 5220 5216 5213 5209 5206 5204 5201 5198 5196 5194 5191 5189 5187 5185 5184 5183 5181 5180
5339 5331 5323 5316 5309 5302 5296 5290 5284 5279 5274 5270 5265 5260 5256 5251 5246 5242 5238 5234 5230 5226 5222 5218 5214 5211 5207 5204 5201 5198 5195 5192 5189 5187 5185 5182 5180 5178 5176 5174 5173 5172 5170
5326 5318 5310 5304 5297 5291 5286 5280 5275 5270 5266 5261 5257 5252 5247 5243 5238 5234 5230 5226 5222 5218 5214 5210 5206 5202 5199 5195 5192 5189 5186 5183 5181 5178 5175 5173 5171 5169 5167 5165 5163 5162 5160